QPF
0.05 0.05 0.05 0.09 0.16 0.20 0.22 0.23 0.26 0.33 0.39 0.51 0.53 0.57 0.60 0.66 0.68 0.65 0.51 0.39 0.33 0.37 0.39 0.38 0.33 0.28 0.23 0.20 0.20 0.20 0.19 0.18 0.18 0.16 0.13 0.09 0.08 0.10 0.10 0.08 0.07 0.06 0.06
0.02 0.04 0.06 0.08 0.15 0.22 0.28 0.30 0.29 0.32 0.36 0.46 0.53 0.58 0.56 0.57 0.60 0.57 0.50 0.45 0.40 0.34 0.31 0.32 0.30 0.25 0.22 0.20 0.18 0.16 0.16 0.17 0.16 0.13 0.11 0.09 0.09 0.09 0.09 0.07 0.05 0.04 0.03
0.03 0.04 0.06 0.09 0.14 0.16 0.25 0.27 0.28 0.27 0.30 0.32 0.37 0.50 0.52 0.49 0.42 0.42 0.42 0.42 0.43 0.43 0.38 0.34 0.31 0.32 0.29 0.24 0.20 0.18 0.15 0.16 0.16 0.13 0.12 0.11 0.10 0.07 0.06 0.05 0.04 0.03 0.02
0.06 0.06 0.04 0.07 0.20 0.23 0.17 0.17 0.20 0.21 0.19 0.20 0.22 0.28 0.35 0.38 0.37 0.37 0.36 0.33 0.32 0.33 0.35 0.33 0.26 0.24 0.23 0.21 0.19 0.17 0.16 0.16 0.17 0.16 0.14 0.11 0.10 0.08 0.06 0.05 0.04 0.02 0.01
0.11 0.12 0.08 0.08 0.14 0.18 0.21 0.18 0.18 0.22 0.18 0.16 0.16 0.18 0.23 0.25 0.25 0.27 0.25 0.23 0.22 0.21 0.24 0.26 0.22 0.18 0.19 0.19 0.20 0.21 0.18 0.15 0.15 0.15 0.15 0.15 0.12 0.08 0.05 0.05 0.04 0.03 0.02
0.08 0.08 0.07 0.07 0.10 0.11 0.16 0.21 0.15 0.19 0.21 0.19 0.19 0.20 0.21 0.16 0.15 0.17 0.15 0.15 0.17 0.16 0.17 0.19 0.17 0.16 0.16 0.16 0.15 0.16 0.16 0.15 0.13 0.14 0.13 0.12 0.11 0.08 0.06 0.04 0.03 0.02 0.02
0.09 0.09 0.10 0.09 0.08 0.08 0.08 0.12 0.13 0.16 0.22 0.22 0.24 0.26 0.31 0.28 0.18 0.15 0.16 0.16 0.17 0.17 0.16 0.14 0.12 0.12 0.14 0.14 0.15 0.14 0.12 0.10 0.08 0.07 0.07 0.06 0.04 0.04 0.04 0.03 0.02 0.01 0.01
0.07 0.07 0.07 0.08 0.08 0.09 0.09 0.10 0.13 0.15 0.18 0.21 0.22 0.26 0.33 0.32 0.23 0.14 0.10 0.11 0.12 0.14 0.13 0.13 0.13 0.10 0.09 0.09 0.10 0.08 0.06 0.05 0.03 0.03 0.03 0.02 0.02 0.02 0.02 0.02 0.02 0.02 0.02
0.06 0.07 0.06 0.05 0.06 0.07 0.09 0.10 0.10 0.13 0.14 0.17 0.18 0.18 0.23 0.22 0.16 0.12 0.09 0.08 0.07 0.07 0.07 0.07 0.08 0.08 0.07 0.05 0.05 0.04 0.03 0.03 0.02 0.02 0.01 0.01 0.01 0.01 0.01 0.01 0.01 0.01 0.01
0.06 0.06 0.05 0.04 0.04 0.05 0.08 0.12 0.13 0.12 0.14 0.15 0.15 0.15 0.15 0.16 0.17 0.16 0.12 0.09 0.07 0.06 0.05 0.06 0.06 0.06 0.05 0.04 0.03 0.02 0.02 0.01 0.02 0.01 0.01 0.01 0.01 0.01 0.00 0.00 0.00 0.00 0.01
0.07 0.06 0.05 0.04 0.05 0.05 0.07 0.11 0.13 0.12 0.12 0.11 0.11 0.11 0.09 0.09 0.10 0.11 0.10 0.08 0.07 0.04 0.03 0.05 0.06 0.06 0.04 0.03 0.02 0.01 0.01 0.01 0.01 0.01 0.00 0.00 0.00 0.00 0.00 0.00 0.00 0.00 0.00
0.03 0.02 0.02 0.03 0.04 0.05 0.05 0.08 0.10 0.10 0.10 0.09 0.09 0.08 0.07 0.06 0.05 0.04 0.03 0.03 0.03 0.02 0.01 0.01 0.03 0.04 0.04 0.02 0.01 0.01 0.01 0.01 0.00 0.00 0.00 0.00 0.00 0.00 0.00 0.00 0.00 0.00 0.00
0.03 0.02 0.02 0.03 0.03 0.05 0.06 0.06 0.08 0.09 0.08 0.07 0.08 0.07 0.07 0.07 0.05 0.03 0.03 0.03 0.02 0.02 0.02 0.01 0.01 0.01 0.01 0.01 0.01 0.01 0.01 0.00 0.00 0.00 0.00 0.00 0.00 0.00 0.00 0.00 0.00 0.00 0.00
0.03 0.03 0.03 0.03 0.03 0.04 0.06 0.07 0.07 0.07 0.07 0.07 0.07 0.06 0.06 0.08 0.07 0.04 0.03 0.02 0.02 0.02 0.02 0.01 0.01 0.01 0.01 0.01 0.01 0.01 0.00 0.00 0.00 0.00 0.00 0.00 0.00 0.00 0.00 0.00 0.00 0.00 0.00
0.04 0.04 0.04 0.04 0.03 0.05 0.05 0.06 0.08 0.07 0.07 0.07 0.06 0.06 0.06 0.07 0.07 0.06 0.05 0.04 0.03 0.02 0.02 0.02 0.02 0.01 0.01 0.01 0.01 0.00 0.00 0.00 0.00 0.00 0.00 0.00 0.00 0.00 0.00 0.00 0.00 0.00 0.00
0.04 0.05 0.04 0.04 0.04 0.05 0.05 0.05 0.08 0.10 0.08 0.07 0.07 0.06 0.06 0.07 0.07 0.07 0.06 0.05 0.04 0.02 0.01 0.02 0.02 0.01 0.01 0.01 0.00 0.00 0.00 0.00 0.00 0.00 0.00 0.00 0.00 0.00 0.00 0.00 0.00 0.00 0.00
0.04 0.05 0.05 0.04 0.04 0.05 0.06 0.05 0.06 0.08 0.10 0.09 0.07 0.06 0.06 0.06 0.07 0.06 0.05 0.05 0.04 0.03 0.02 0.01 0.01 0.01 0.01 0.00 0.00 0.00 0.00 0.00 0.00 0.00 0.00 0.00 0.00 0.00 0.00 0.00 0.00 0.00 0.00
0.04 0.05 0.05 0.05 0.05 0.05 0.06 0.06 0.07 0.07 0.08 0.09 0.07 0.06 0.05 0.05 0.05 0.05 0.04 0.04 0.03 0.02 0.01 0.00 0.00 0.00 0.00 0.00 0.00 0.00 0.00 0.00 0.00 0.00 0.00 0.00 0.00 0.00 0.00 0.00 0.00 0.00 0.00
0.03 0.03 0.04 0.05 0.05 0.05 0.05 0.06 0.08 0.08 0.08 0.08 0.07 0.06 0.06 0.06 0.06 0.06 0.05 0.04 0.02 0.01 0.01 0.00 0.00 0.00 0.01 0.00 0.00 0.00 0.00 0.00 0.00 0.00 0.00 0.00 0.00 0.00 0.00 0.00 0.00 0.00 0.00
0.02 0.03 0.03 0.04 0.04 0.05 0.05 0.06 0.07 0.08 0.07 0.07 0.07 0.06 0.06 0.06 0.06 0.05 0.04 0.04 0.03 0.02 0.01 0.00 0.00 0.00 0.00 0.00 0.00 0.00 0.00 0.00 0.00 0.00 0.00 0.00 0.00 0.00 0.00 0.00 0.00 0.00 0.00
0.02 0.03 0.03 0.04 0.03 0.03 0.04 0.06 0.08 0.08 0.06 0.05 0.05 0.05 0.04 0.04 0.04 0.04 0.03 0.03 0.03 0.03 0.02 0.02 0.01 0.00 0.00 0.00 0.00 0.00 0.00 0.00 0.00 0.00 0.00 0.00 0.00 0.00 0.00 0.00 0.00 0.00 0.00
0.04 0.04 0.03 0.03 0.02 0.02 0.02 0.03 0.06 0.07 0.05 0.05 0.04 0.04 0.03 0.03 0.03 0.02 0.02 0.01 0.01 0.01 0.01 0.01 0.00 0.00 0.00 0.00 0.00 0.00 0.00 0.00 0.00 0.00 0.00 0.00 0.00 0.00 0.00 0.00 0.00 0.00 0.00
0.04 0.04 0.03 0.02 0.02 0.02 0.02 0.02 0.03 0.04 0.04 0.04 0.03 0.03 0.03 0.02 0.02 0.02 0.01 0.01 0.01 0.00 0.00 0.00 0.00 0.00 0.00 0.00 0.00 0.00 0.00 0.00 0.00 0.00 0.00 0.00 0.00 0.00 0.00 0.00 0.00 0.00 0.00
0.04 0.03 0.03 0.02 0.02 0.03 0.03 0.02 0.03 0.03 0.03 0.04 0.04 0.03 0.03 0.02 0.01 0.01 0.01 0.00 0.00 0.00 0.00 0.00 0.00 0.00 0.00 0.00 0.00 0.00 0.00 0.00 0.00 0.00 0.00 0.00 0.00 0.00 0.00 0.00 0.00 0.00 0.00
0.03 0.03 0.02 0.02 0.02 0.03 0.03 0.02 0.02 0.01 0.02 0.02 0.03 0.03 0.01 0.01 0.00 0.00 0.00 0.00 0.00 0.00 0.00 0.00 0.00 0.00 0.00 0.00 0.00 0.00 0.00 0.00 0.00 0.00 0.00 0.00 0.00 0.00 0.00 0.00 0.00 0.00 0.00
0.04 0.03 0.02 0.03 0.03 0.02 0.02 0.02 0.01 0.01 0.01 0.02 0.02 0.01 0.01 0.00 0.00 0.00 0.00 0.00 0.00 0.00 0.00 0.00 0.00 0.00 0.00 0.00 0.00 0.00 0.00 0.00 0.00 0.00 0.00 0.00 0.00 0.00 0.00 0.00 0.00 0.00 0.00
MSLP
1007.91 1007.65 1007.46 1007.37 1007.40 1007.58 1007.91 1008.38 1008.97 1009.65 1010.35 1011.02 1011.62 1012.11 1012.49 1012.76 1012.95 1013.10 1013.26 1013.46 1013.72 1014.05 1014.44 1014.86 1015.29 1015.71 1016.12 1016.51 1016.91 1017.35 1017.85 1018.43 1019.11 1019.86 1020.65 1021.43 1022.16 1022.77 1023.24 1023.54 1023.68 1023.70 1023.63
1009.00 1008.76 1008.54 1008.38 1008.31 1008.36 1008.56 1008.92 1009.44 1010.07 1010.76 1011.43 1012.04 1012.53 1012.88 1013.09 1013.19 1013.23 1013.28 1013.37 1013.55 1013.83 1014.20 1014.63 1015.09 1015.54 1015.96 1016.36 1016.75 1017.15 1017.61 1018.16 1018.82 1019.57 1020.40 1021.26 1022.09 1022.83 1023.42 1023.85 1024.11 1024.22 1024.20
1010.15 1009.91 1009.65 1009.40 1009.21 1009.11 1009.16 1009.39 1009.80 1010.37 1011.03 1011.72 1012.36 1012.88 1013.25 1013.45 1013.52 1013.50 1013.46 1013.46 1013.56 1013.77 1014.09 1014.50 1014.95 1015.41 1015.83 1016.22 1016.58 1016.95 1017.37 1017.87 1018.50 1019.24 1020.09 1021.00 1021.90 1022.75 1023.47 1024.03 1024.41 1024.62 1024.69
1011.18 1010.95 1010.65 1010.31 1009.98 1009.72 1009.61 1009.69 1009.99 1010.49 1011.13 1011.85 1012.54 1013.14 1013.57 1013.82 1013.91 1013.88 1013.80 1013.75 1013.78 1013.92 1014.19 1014.55 1014.97 1015.41 1015.82 1016.18 1016.52 1016.85 1017.23 1017.68 1018.26 1018.98 1019.81 1020.73 1021.68 1022.60 1023.41 1024.07 1024.56 1024.88 1025.04
1011.98 1011.76 1011.43 1011.02 1010.57 1010.17 1009.90 1009.84 1010.03 1010.46 1011.09 1011.84 1012.61 1013.30 1013.84 1014.19 1014.35 1014.37 1014.30 1014.23 1014.21 1014.30 1014.51 1014.82 1015.20 1015.60 1015.99 1016.34 1016.65 1016.96 1017.29 1017.70 1018.23 1018.88 1019.67 1020.56 1021.50 1022.43 1023.28 1024.01 1024.58 1024.98 1025.23
1012.52 1012.33 1011.99 1011.53 1011.00 1010.50 1010.11 1009.92 1010.02 1010.39 1011.00 1011.78 1012.63 1013.42 1014.09 1014.56 1014.83 1014.92 1014.91 1014.85 1014.82 1014.88 1015.04 1015.30 1015.65 1016.02 1016.39 1016.72 1017.03 1017.31 1017.61 1017.98 1018.44 1019.03 1019.73 1020.54 1021.42 1022.30 1023.13 1023.87 1024.47 1024.93 1025.24
1012.84 1012.69 1012.39 1011.92 1011.36 1010.79 1010.32 1010.06 1010.07 1010.39 1010.99 1011.79 1012.69 1013.57 1014.35 1014.94 1015.33 1015.52 1015.57 1015.55 1015.53 1015.58 1015.71 1015.95 1016.26 1016.62 1016.98 1017.32 1017.63 1017.91 1018.19 1018.52 1018.91 1019.41 1020.00 1020.70 1021.46 1022.24 1023.00 1023.69 1024.28 1024.75 1025.10
1013.04 1012.96 1012.72 1012.30 1011.76 1011.18 1010.68 1010.37 1010.34 1010.61 1011.18 1011.97 1012.89 1013.82 1014.67 1015.35 1015.83 1016.11 1016.23 1016.26 1016.27 1016.32 1016.45 1016.68 1016.98 1017.33 1017.70 1018.06 1018.39 1018.68 1018.96 1019.25 1019.59 1019.99 1020.47 1021.02 1021.63 1022.28 1022.92 1023.52 1024.06 1024.51 1024.87
1013.21 1013.23 1013.08 1012.75 1012.28 1011.76 1011.28 1010.96 1010.91 1011.14 1011.66 1012.40 1013.30 1014.23 1015.09 1015.80 1016.33 1016.66 1016.84 1016.92 1016.96 1017.03 1017.17 1017.40 1017.71 1018.08 1018.47 1018.85 1019.21 1019.53 1019.82 1020.10 1020.38 1020.70 1021.06 1021.47 1021.93 1022.42 1022.92 1023.42 1023.88 1024.28 1024.63
1013.46 1013.59 1013.56 1013.35 1012.99 1012.55 1012.14 1011.86 1011.79 1011.99 1012.44 1013.12 1013.93 1014.79 1015.60 1016.29 1016.81 1017.16 1017.37 1017.48 1017.56 1017.66 1017.82 1018.07 1018.40 1018.78 1019.20 1019.62 1020.01 1020.36 1020.67 1020.94 1021.20 1021.45 1021.71 1022.00 1022.32 1022.67 1023.04 1023.42 1023.80 1024.15 1024.48
1013.84 1014.08 1014.17 1014.09 1013.86 1013.54 1013.22 1012.99 1012.94 1013.11 1013.49 1014.06 1014.76 1015.50 1016.20 1016.81 1017.28 1017.61 1017.81 1017.95 1018.06 1018.19 1018.38 1018.65 1019.00 1019.42 1019.86 1020.31 1020.73 1021.10 1021.43 1021.71 1021.94 1022.15 1022.36 1022.56 1022.78 1023.02 1023.28 1023.57 1023.87 1024.18 1024.48
1014.35 1014.68 1014.88 1014.91 1014.81 1014.61 1014.40 1014.25 1014.22 1014.36 1014.67 1015.13 1015.68 1016.27 1016.84 1017.33 1017.72 1018.00 1018.20 1018.34 1018.48 1018.65 1018.88 1019.18 1019.56 1019.98 1020.44 1020.90 1021.33 1021.73 1022.07 1022.35 1022.58 1022.78 1022.95 1023.10 1023.26 1023.43 1023.63 1023.85 1024.10 1024.37 1024.65
1014.93 1015.33 1015.60 1015.73 1015.73 1015.65 1015.54 1015.47 1015.48 1015.60 1015.84 1016.19 1016.60 1017.04 1017.46 1017.83 1018.13 1018.37 1018.55 1018.72 1018.89 1019.11 1019.37 1019.71 1020.10 1020.53 1020.98 1021.43 1021.86 1022.24 1022.58 1022.87 1023.10 1023.30 1023.46 1023.61 1023.75 1023.89 1024.05 1024.24 1024.46 1024.70 1024.96
1015.53 1015.95 1016.26 1016.45 1016.54 1016.55 1016.53 1016.53 1016.58 1016.70 1016.89 1017.15 1017.44 1017.74 1018.04 1018.30 1018.53 1018.73 1018.92 1019.12 1019.34 1019.61 1019.92 1020.28 1020.68 1021.11 1021.53 1021.95 1022.34 1022.70 1023.02 1023.29 1023.53 1023.73 1023.91 1024.06 1024.21 1024.35 1024.51 1024.68 1024.88 1025.11 1025.35
1016.08 1016.50 1016.81 1017.03 1017.16 1017.24 1017.30 1017.37 1017.46 1017.58 1017.75 1017.94 1018.14 1018.35 1018.55 1018.74 1018.93 1019.13 1019.34 1019.59 1019.87 1020.20 1020.56 1020.95 1021.35 1021.75 1022.14 1022.50 1022.83 1023.14 1023.41 1023.66 1023.89 1024.10 1024.29 1024.47 1024.63 1024.79 1024.95 1025.12 1025.31 1025.51 1025.72
1016.57 1016.95 1017.24 1017.46 1017.62 1017.75 1017.87 1017.98 1018.11 1018.26 1018.41 1018.56 1018.71 1018.86 1019.01 1019.17 1019.35 1019.57 1019.84 1020.15 1020.50 1020.89 1021.30 1021.72 1022.11 1022.47 1022.80 1023.10 1023.35 1023.59 1023.81 1024.02 1024.23 1024.44 1024.64 1024.84 1025.02 1025.19 1025.35 1025.51 1025.68 1025.84 1026.01
1017.00 1017.33 1017.59 1017.80 1017.97 1018.13 1018.29 1018.45 1018.62 1018.78 1018.93 1019.07 1019.20 1019.32 1019.46 1019.62 1019.82 1020.08 1020.41 1020.79 1021.22 1021.67 1022.12 1022.54 1022.92 1023.25 1023.51 1023.73 1023.91 1024.07 1024.22 1024.39 1024.57 1024.77 1024.97 1025.18 1025.37 1025.54 1025.69 1025.83 1025.95 1026.06 1026.18
1017.41 1017.70 1017.93 1018.13 1018.31 1018.49 1018.67 1018.87 1019.06 1019.24 1019.41 1019.55 1019.67 1019.80 1019.94 1020.12 1020.36 1020.67 1021.05 1021.50 1021.98 1022.48 1022.95 1023.38 1023.74 1024.01 1024.22 1024.36 1024.47 1024.56 1024.65 1024.78 1024.93 1025.11 1025.30 1025.50 1025.69 1025.84 1025.97 1026.06 1026.13 1026.18 1026.21
1017.84 1018.11 1018.34 1018.53 1018.72 1018.92 1019.13 1019.34 1019.56 1019.75 1019.92 1020.07 1020.20 1020.33 1020.48 1020.69 1020.96 1021.32 1021.74 1022.23 1022.75 1023.26 1023.74 1024.16 1024.48 1024.71 1024.86 1024.95 1024.99 1025.03 1025.08 1025.16 1025.29 1025.45 1025.63 1025.82 1025.98 1026.12 1026.20 1026.25 1026.25 1026.22 1026.17
1018.34 1018.61 1018.84 1019.04 1019.25 1019.47 1019.69 1019.92 1020.14 1020.34 1020.52 1020.67 1020.80 1020.94 1021.11 1021.33 1021.63 1022.00 1022.44 1022.94 1023.47 1023.98 1024.44 1024.83 1025.11 1025.31 1025.41 1025.45 1025.45 1025.45 1025.47 1025.54 1025.64 1025.79 1025.95 1026.12 1026.27 1026.37 1026.42 1026.40 1026.34 1026.24 1026.12
1018.90 1019.19 1019.44 1019.66 1019.89 1020.12 1020.36 1020.59 1020.81 1021.01 1021.19 1021.34 1021.47 1021.62 1021.79 1022.03 1022.32 1022.70 1023.13 1023.62 1024.11 1024.59 1025.02 1025.36 1025.61 1025.77 1025.84 1025.85 1025.83 1025.82 1025.83 1025.88 1025.98 1026.11 1026.26 1026.41 1026.53 1026.60 1026.61 1026.56 1026.45 1026.29 1026.11
1019.49 1019.80 1020.08 1020.33 1020.57 1020.81 1021.05 1021.29 1021.51 1021.70 1021.87 1022.02 1022.16 1022.31 1022.49 1022.72 1023.02 1023.37 1023.78 1024.22 1024.68 1025.10 1025.48 1025.77 1025.98 1026.11 1026.16 1026.16 1026.14 1026.13 1026.14 1026.19 1026.28 1026.40 1026.53 1026.66 1026.76 1026.80 1026.79 1026.71 1026.57 1026.38 1026.16
1020.05 1020.38 1020.67 1020.94 1021.20 1021.44 1021.68 1021.91 1022.12 1022.31 1022.48 1022.64 1022.79 1022.95 1023.14 1023.38 1023.66 1023.99 1024.36 1024.76 1025.15 1025.52 1025.84 1026.09 1026.26 1026.36 1026.40 1026.41 1026.40 1026.39 1026.41 1026.46 1026.54 1026.65 1026.76 1026.86 1026.94 1026.96 1026.93 1026.84 1026.70 1026.51 1026.29
1020.52 1020.85 1021.15 1021.42 1021.67 1021.91 1022.15 1022.37 1022.58 1022.77 1022.95 1023.12 1023.30 1023.48 1023.69 1023.94 1024.21 1024.53 1024.86 1025.21 1025.55 1025.86 1026.13 1026.33 1026.48 1026.57 1026.61 1026.62 1026.62 1026.63 1026.65 1026.69 1026.76 1026.85 1026.93 1027.00 1027.05 1027.06 1027.02 1026.94 1026.81 1026.64 1026.45
1020.83 1021.15 1021.43 1021.70 1021.94 1022.17 1022.39 1022.60 1022.81 1023.02 1023.22 1023.43 1023.64 1023.86 1024.11 1024.37 1024.66 1024.97 1025.28 1025.59 1025.88 1026.15 1026.37 1026.55 1026.67 1026.76 1026.80 1026.83 1026.84 1026.85 1026.87 1026.91 1026.95 1027.00 1027.04 1027.08 1027.09 1027.09 1027.04 1026.98 1026.88 1026.75 1026.60
1020.96 1021.25 1021.52 1021.76 1021.98 1022.19 1022.40 1022.62 1022.83 1023.06 1023.30 1023.55 1023.81 1024.09 1024.38 1024.68 1024.99 1025.30 1025.60 1025.89 1026.15 1026.38 1026.58 1026.73 1026.85 1026.93 1026.99 1027.03 1027.05 1027.07 1027.08 1027.09 1027.10 1027.11 1027.11 1027.10 1027.08 1027.05 1027.01 1026.96 1026.90 1026.82 1026.73
Thickness
5711 5712 5714 5714 5714 5713 5714 5714 5714 5714 5713 5712 5710 5708 5706 5706 5705 5705 5706 5706 5706 5708 5708 5708 5709 5709 5708 5708 5706 5702 5699 5696 5694 5690 5683 5679 5679 5679 5677 5676 5675 5673 5671
5698 5699 5700 5701 5702 5703 5703 5705 5706 5707 5706 5704 5704 5703 5701 5699 5698 5696 5697 5699 5700 5701 5702 5704 5704 5705 5705 5703 5702 5699 5694 5691 5692 5687 5679 5671 5668 5667 5666 5666 5665 5664 5663
5685 5686 5687 5687 5690 5692 5693 5694 5695 5697 5696 5695 5695 5694 5694 5693 5690 5688 5690 5693 5695 5695 5696 5698 5699 5700 5700 5699 5698 5697 5694 5688 5687 5688 5683 5673 5666 5659 5656 5656 5655 5655 5653
5676 5676 5676 5676 5678 5680 5682 5682 5686 5688 5688 5688 5688 5688 5687 5685 5684 5682 5683 5685 5687 5688 5690 5692 5693 5693 5694 5693 5693 5693 5691 5688 5683 5682 5681 5679 5673 5661 5651 5646 5645 5645 5644
5665 5665 5664 5665 5668 5670 5671 5672 5676 5679 5681 5681 5681 5680 5680 5679 5677 5676 5677 5679 5680 5681 5683 5684 5685 5685 5686 5686 5686 5685 5684 5683 5680 5677 5674 5670 5667 5663 5654 5642 5637 5635 5633
5654 5654 5653 5655 5656 5659 5660 5662 5665 5669 5672 5673 5673 5672 5672 5671 5670 5669 5669 5670 5671 5671 5672 5674 5675 5676 5676 5677 5677 5677 5676 5674 5672 5670 5668 5665 5662 5656 5650 5641 5632 5627 5624
5643 5643 5643 5644 5644 5646 5649 5651 5654 5657 5661 5663 5663 5664 5664 5663 5662 5661 5661 5660 5661 5660 5661 5664 5665 5666 5666 5667 5668 5667 5665 5664 5662 5660 5658 5658 5656 5653 5648 5639 5628 5620 5615
5635 5634 5633 5633 5632 5634 5636 5640 5643 5646 5649 5651 5653 5653 5653 5653 5651 5651 5651 5650 5650 5649 5651 5654 5655 5656 5656 5657 5656 5655 5653 5652 5651 5650 5648 5648 5646 5645 5641 5634 5625 5614 5607
5626 5624 5623 5623 5623 5624 5625 5628 5631 5634 5636 5639 5641 5642 5643 5642 5640 5640 5641 5640 5640 5641 5642 5644 5645 5646 5645 5645 5644 5642 5640 5640 5639 5638 5638 5637 5635 5633 5631 5628 5624 5615 5602
5616 5615 5613 5612 5612 5613 5615 5618 5620 5622 5624 5627 5630 5631 5631 5630 5630 5630 5630 5630 5630 5632 5633 5633 5634 5634 5633 5632 5632 5630 5629 5629 5627 5626 5626 5624 5623 5622 5620 5617 5613 5610 5602
5606 5604 5603 5602 5602 5603 5604 5606 5609 5610 5611 5613 5616 5618 5619 5619 5619 5619 5619 5619 5620 5620 5621 5622 5623 5623 5622 5621 5620 5619 5618 5617 5615 5615 5614 5612 5611 5610 5608 5606 5602 5598 5593
5596 5594 5592 5591 5591 5592 5594 5596 5597 5599 5600 5602 5604 5605 5606 5606 5607 5607 5607 5608 5609 5609 5610 5611 5611 5611 5610 5609 5609 5608 5606 5605 5604 5603 5603 5601 5601 5598 5596 5594 5590 5586 5583
5588 5584 5582 5580 5579 5580 5582 5584 5586 5588 5589 5590 5592 5593 5594 5595 5595 5596 5596 5598 5598 5598 5598 5599 5599 5599 5599 5598 5597 5597 5595 5594 5593 5592 5591 5589 5588 5585 5583 5581 5578 5574 5571
5579 5575 5571 5570 5569 5569 5570 5572 5574 5576 5578 5580 5581 5582 5582 5583 5583 5584 5585 5586 5587 5587 5587 5587 5587 5587 5587 5587 5586 5585 5584 5583 5581 5580 5579 5578 5577 5574 5572 5569 5565 5562 5557
5572 5567 5563 5561 5560 5560 5560 5562 5563 5565 5567 5569 5570 5570 5571 5572 5573 5573 5574 5575 5575 5575 5575 5575 5575 5575 5575 5575 5574 5573 5572 5571 5569 5569 5568 5567 5566 5564 5562 5558 5553 5550 5545
5565 5560 5556 5554 5552 5552 5553 5553 5554 5555 5556 5558 5559 5560 5561 5562 5562 5562 5562 5563 5563 5562 5562 5562 5562 5562 5562 5563 5563 5563 5561 5560 5559 5557 5556 5555 5554 5552 5550 5548 5544 5541 5536
5559 5553 5549 5546 5545 5545 5545 5544 5545 5546 5547 5548 5549 5550 5551 5552 5552 5552 5552 5551 5551 5550 5550 5550 5550 5549 5550 5552 5553 5553 5552 5550 5548 5546 5545 5544 5542 5541 5539 5536 5534 5530 5527
5552 5546 5542 5539 5537 5537 5537 5536 5537 5538 5538 5539 5540 5541 5542 5542 5542 5542 5541 5541 5541 5540 5539 5539 5539 5540 5541 5543 5543 5543 5541 5539 5537 5536 5534 5532 5530 5529 5527 5525 5521 5518 5516
5545 5540 5536 5533 5531 5530 5530 5530 5530 5530 5531 5531 5531 5532 5533 5533 5533 5533 5532 5531 5531 5530 5530 5530 5530 5530 5531 5533 5533 5533 5530 5528 5525 5524 5523 5522 5519 5518 5517 5514 5510 5507 5505
5539 5534 5530 5528 5526 5524 5524 5524 5523 5523 5524 5524 5525 5525 5525 5525 5525 5524 5524 5523 5523 5522 5522 5521 5521 5521 5521 5523 5524 5523 5520 5516 5514 5513 5512 5511 5510 5508 5507 5503 5500 5498 5496
5533 5529 5526 5523 5521 5520 5519 5518 5518 5518 5518 5519 5519 5519 5519 5519 5518 5518 5517 5516 5515 5514 5513 5512 5512 5512 5512 5513 5514 5514 5511 5508 5505 5504 5502 5502 5501 5500 5499 5497 5494 5492 5491
5528 5525 5522 5519 5517 5516 5515 5513 5513 5513 5513 5513 5512 5513 5513 5514 5513 5512 5511 5509 5508 5506 5504 5502 5502 5503 5503 5504 5505 5505 5503 5501 5498 5496 5495 5495 5495 5494 5493 5491 5490 5488 5487
5524 5521 5518 5514 5512 5511 5511 5509 5508 5509 5508 5507 5507 5507 5508 5507 5507 5506 5505 5503 5501 5500 5497 5495 5494 5494 5495 5496 5496 5496 5495 5494 5492 5490 5490 5490 5490 5489 5488 5488 5486 5484 5481
5521 5517 5513 5510 5508 5507 5507 5506 5505 5505 5504 5503 5502 5501 5501 5499 5499 5499 5499 5498 5496 5494 5492 5490 5488 5487 5487 5487 5488 5488 5487 5487 5486 5485 5486 5486 5485 5485 5484 5483 5481 5479 5477
5519 5514 5511 5508 5505 5505 5504 5503 5503 5502 5500 5499 5498 5496 5494 5493 5491 5491 5490 5491 5491 5492 5490 5487 5485 5483 5481 5481 5482 5481 5481 5480 5480 5480 5479 5479 5478 5477 5476 5475 5474 5473 5473
5517 5512 5509 5506 5504 5503 5502 5501 5501 5499 5497 5495 5493 5491 5489 5488 5486 5485 5484 5485 5486 5487 5487 5486 5484 5481 5480 5478 5477 5477 5477 5477 5477 5475 5472 5471 5470 5469 5468 5468 5468 5468 5467